Wind_Speed
11 12 13 12 11 7 3 3 3 4 3 5 6 9 9 10 12 5 4 3 2 4 8 7 8 8 6 9 10 9 8 8 8 8 8 8 8 8 9 9 11 12 14
9 11 11 11 10 10 7 3 3 2 4 4 1 2 10 10 13 8 3 1 0 3 6 6 7 6 8 8 9 11 11 10 8 8 7 8 8 8 8 9 11 11 12
7 9 10 10 9 10 9 7 4 3 4 6 5 3 2 8 13 15 10 7 2 2 4 6 7 6 6 9 9 10 11 13 12 10 11 8 7 8 8 9 10 11 12
6 7 8 9 9 10 10 7 8 4 2 2 2 7 6 5 9 12 11 10 9 7 6 6 7 7 6 8 8 9 10 10 10 13 14 13 10 8 8 8 9 11 12
5 6 7 8 9 11 10 10 9 7 6 5 8 6 6 8 6 10 12 11 10 10 9 7 7 8 8 8 6 8 9 10 11 12 14 18 15 12 11 10 10 11 12
5 6 7 7 9 10 11 11 11 12 10 12 17 15 12 11 8 5 7 11 10 8 7 6 7 7 7 6 7 9 8 9 11 12 12 13 15 18 17 14 13 13 14
6 6 6 6 8 10 11 12 12 14 14 15 17 22 22 13 11 10 5 6 9 10 8 4 3 2 3 2 3 5 8 9 11 9 12 14 12 13 16 18 17 17 16
6 7 7 7 8 9 10 11 11 13 15 13 11 10 7 13 18 13 6 9 7 7 9 7 6 6 5 7 8 8 8 7 5 5 8 10 15 16 14 14 16 18 18
6 7 8 8 8 9 9 10 11 10 11 11 10 7 6 5 9 9 11 12 11 8 5 1 3 6 6 8 10 9 9 12 13 9 9 10 11 12 16 17 15 17 19
5 7 7 8 8 9 10 11 11 11 10 8 10 12 12 9 5 5 3 6 10 8 7 5 4 1 1 2 5 7 7 11 14 14 12 11 12 13 12 13 17 17 17
5 5 6 7 8 8 10 11 11 10 9 10 8 8 8 6 5 4 1 3 3 3 3 1 2 3 7 11 11 11 13 13 13 13 14 12 13 14 15 14 15 17 20
4 4 5 6 7 8 8 9 9 10 10 9 9 7 3 2 2 1 3 5 5 4 1 2 3 7 7 7 8 9 12 14 13 14 12 12 14 13 14 18 17 17 18
5 4 4 5 6 6 7 8 8 8 9 8 8 8 6 5 5 4 4 5 5 6 4 1 8 9 10 12 14 14 15 16 17 16 16 17 18 15 16 17 16 18 19
6 4 3 3 4 5 6 6 6 7 7 7 7 7 7 7 6 6 6 6 5 5 4 3 10 10 12 13 16 17 18 20 20 20 19 19 19 20 19 17 18 20 22
8 6 4 3 3 3 4 4 5 5 6 5 5 5 6 6 6 6 6 6 5 4 4 4 10 11 13 13 13 15 16 16 16 19 21 22 21 21 21 22 22 24 25
10 7 5 3 2 0 1 2 2 3 3 3 4 4 5 5 5 6 7 8 8 7 4 9 10 13 14 15 16 16 16 16 16 18 19 21 23 26 27 27 27 27 25
12 10 9 7 6 4 3 2 1 1 1 2 2 2 3 3 4 5 6 7 8 10 12 13 14 15 15 15 14 15 17 17 18 20 20 20 21 24 26 25 25 26 26
14 13 11 10 9 7 6 5 4 4 3 3 3 3 3 4 3 3 3 4 4 7 10 12 13 15 17 19 20 19 18 19 21 20 21 20 20 22 24 25 25 26 27
17 15 14 13 12 11 10 9 8 8 7 7 6 6 6 6 6 6 6 7 7 8 10 13 15 15 16 17 18 20 22 22 21 23 21 21 18 26 23 24 24 24 26
22 20 18 17 16 15 14 13 13 12 12 11 10 9 9 9 8 9 10 11 11 12 13 15 17 19 20 22 23 24 23 24 27 27 24 21 27 25 24 22 23 24 26
27 25 24 23 22 20 19 17 17 16 16 15 14 14 13 12 12 12 11 11 12 13 14 16 17 18 20 22 24 27 29 28 29 29 29 33 35 32 29 26 23 22 23
33 32 31 29 28 26 24 22 21 21 20 19 18 18 17 16 16 15 15 14 14 15 15 17 18 19 19 21 24 26 30 32 34 31 37 31 36 36 40 29 26 26 27
40 38 36 35 34 31 29 28 27 26 25 24 23 22 21 20 20 19 19 18 18 18 19 19 19 19 21 22 24 26 26 28 30 32 36 37 35 36 35 37 41 30 23
46 44 42 41 39 36 34 33 32 31 30 29 28 26 25 24 23 23 22 22 22 21 21 22 22 22 22 22 23 25 27 31 31 29 30 40 34 38 37 36 37 32 22
47 47 46 45 44 41 38 36 34 34 33 32 31 30 28 27 26 26 27 25 25 24 23 25 26 26 25 24 25 27 27 29 33 34 32 30 32 40 39 38 35 31 30
46 45 45 44 43 42 39 39 38 37 37 35 34 33 31 30 28 28 29 28 29 26 26 27 27 28 28 27 27 26 26 27 28 34 19 31 38 35 42 42 40 43 43
Wind_Direction
45 47 46 48 49 60 113 162 114 89 95 68 237 225 211 207 167 162 264 336 112 50 75 57 65 54 46 48 33 32 44 31 25 28 33 36 37 37 28 29 26 25 20
46 52 51 48 47 51 58 82 144 149 90 93 71 246 222 224 183 158 169 332 95 74 83 45 81 56 52 33 37 40 24 30 25 16 17 9 13 16 14 16 18 14 15
43 55 55 50 48 53 52 55 88 94 130 85 79 83 174 202 201 185 159 136 93 80 86 67 74 72 52 37 32 33 34 23 16 15 7 360 1 4 4 2 5 3 4
40 49 55 56 54 54 55 51 57 93 158 144 70 54 62 163 191 195 183 162 153 126 84 65 59 81 56 36 23 16 20 18 19 4 5 2 348 349 351 348 350 352 353
47 50 56 56 58 57 55 57 59 59 70 117 55 37 53 73 125 183 176 169 140 131 133 106 81 72 52 37 15 358 357 1 360 352 355 355 355 353 346 339 339 343 343
56 55 59 56 56 59 57 57 54 51 69 99 77 66 70 71 81 108 174 187 172 146 117 92 85 53 29 5 11 21 10 331 321 328 344 345 345 348 356 357 345 340 339
73 74 69 64 59 61 58 60 60 62 87 99 99 81 71 75 78 88 117 175 175 174 172 193 177 227 228 265 320 333 336 355 4 325 289 305 332 343 337 345 353 354 347
80 83 79 72 68 69 68 66 68 71 84 117 118 116 100 71 68 68 105 103 116 147 176 204 209 251 272 289 285 285 284 282 278 320 337 310 284 295 318 332 330 334 339
85 81 83 82 78 78 81 80 76 77 79 84 126 138 125 109 105 74 72 71 78 77 83 97 275 258 274 271 279 296 313 304 291 297 303 316 325 293 280 293 313 320 316
96 89 85 82 77 72 72 73 73 76 87 95 93 104 103 126 120 132 56 70 69 59 56 56 54 83 165 19 332 335 354 356 358 313 290 300 306 312 314 310 288 294 319
111 98 90 83 77 71 68 69 73 77 77 78 93 112 128 122 140 158 204 152 14 33 22 74 290 294 306 308 301 299 307 315 321 324 331 308 293 292 294 295 297 300 288
137 110 94 86 80 76 74 72 70 70 70 73 80 89 112 144 144 202 278 328 24 46 357 25 301 272 284 301 312 314 312 313 317 311 312 324 321 290 291 293 293 294 299
165 138 111 91 82 78 74 70 66 63 66 68 70 76 80 76 66 55 37 21 39 78 88 306 293 286 287 299 306 304 308 313 314 308 305 306 305 305 312 313 309 290 285
183 167 144 113 89 77 73 70 67 64 61 59 58 59 57 57 55 54 48 41 43 54 88 2 335 358 341 324 318 316 310 298 296 299 306 312 307 303 308 308 305 313 310
202 194 180 151 113 85 70 64 61 60 61 59 60 60 58 51 44 38 35 51 61 37 45 8 351 351 355 355 345 338 331 334 322 309 302 301 306 306 307 307 307 309 309
215 215 214 214 207 150 74 66 61 63 62 57 52 51 50 48 40 31 16 12 13 20 6 348 356 355 359 358 357 355 351 346 337 330 324 317 311 306 305 307 310 309 307
219 219 222 224 226 229 240 261 301 355 17 26 24 24 24 26 26 23 12 3 355 347 340 346 348 347 351 350 353 354 352 354 356 346 342 337 328 324 321 317 314 310 308
225 227 231 237 241 245 251 258 268 281 295 309 319 326 328 332 336 344 342 331 324 323 327 332 342 342 344 344 344 345 350 350 349 344 341 338 342 338 330 324 315 311 310
230 231 235 240 245 250 254 260 266 272 277 283 288 294 304 309 312 315 316 313 316 322 324 326 331 335 338 334 334 336 337 338 342 339 342 340 343 341 334 327 321 316 305
236 238 240 242 245 250 255 258 261 265 268 271 276 282 286 290 298 304 308 311 315 318 319 323 327 329 332 332 332 327 326 330 332 335 333 336 335 336 335 334 331 324 319
240 241 245 247 247 249 253 256 259 262 265 267 271 275 279 283 285 288 292 297 302 305 308 311 314 318 322 325 327 329 327 324 326 325 326 326 329 331 332 336 336 332 321
244 245 247 250 252 254 255 257 258 260 262 264 265 266 267 270 273 277 280 282 285 290 294 298 304 309 313 316 318 324 325 325 325 324 319 313 322 322 325 335 332 326 323
249 250 251 253 254 256 257 258 258 258 259 261 262 265 268 270 270 271 274 276 279 282 285 287 293 299 304 310 313 316 318 318 317 321 321 313 316 313 316 320 330 332 320
252 254 256 257 257 257 257 258 260 261 260 261 262 263 264 264 267 268 268 272 276 280 286 289 293 294 295 299 303 308 312 312 311 314 318 312 316 309 309 316 319 320 324
254 256 256 256 257 257 257 259 260 262 261 259 260 260 262 264 266 268 271 273 272 275 277 280 283 286 288 293 300 305 309 309 309 311 315 310 313 309 308 310 313 316 310
258 257 258 258 258 257 255 256 259 261 260 260 258 259 262 265 266 267 268 269 271 276 276 277 279 283 286 291 294 296 299 300 302 308 297 305 309 320 316 304 306 310 314
Height
1563 1562 1561 1561 1559 1560 1560 1562 1563 1564 1564 1565 1566 1567 1568 1571 1573 1573 1575 1576 1576 1576 1576 1576 1576 1576 1575 1575 1574 1572 1572 1572 1572 1572 1572 1572 1571 1570 1570 1569 1568 1567 1565
1565 1563 1563 1562 1560 1560 1559 1560 1561 1562 1563 1563 1563 1564 1566 1569 1570 1571 1574 1574 1576 1577 1578 1577 1577 1578 1577 1577 1575 1575 1573 1572 1572 1572 1572 1572 1572 1571 1570 1570 1568 1567 1566
1566 1564 1563 1562 1561 1560 1560 1559 1559 1561 1562 1562 1562 1562 1563 1567 1569 1569 1570 1573 1576 1577 1578 1578 1578 1578 1579 1578 1579 1578 1576 1574 1573 1573 1572 1572 1571 1571 1571 1570 1569 1568 1566
1566 1564 1563 1563 1562 1561 1560 1559 1559 1559 1560 1562 1562 1562 1562 1564 1568 1569 1570 1571 1575 1575 1577 1579 1580 1580 1580 1580 1580 1579 1579 1578 1576 1574 1573 1573 1572 1571 1571 1570 1569 1568 1566
1565 1565 1564 1563 1563 1561 1560 1560 1559 1558 1559 1561 1561 1562 1562 1564 1566 1569 1571 1572 1573 1575 1576 1577 1580 1581 1581 1580 1580 1579 1578 1577 1577 1576 1574 1573 1572 1571 1571 1569 1568 1567 1566
1566 1566 1564 1564 1562 1562 1560 1560 1560 1558 1558 1561 1562 1563 1564 1565 1567 1568 1571 1573 1574 1575 1577 1577 1580 1579 1581 1581 1579 1578 1578 1578 1576 1575 1575 1574 1573 1572 1571 1570 1568 1566 1565
1567 1567 1566 1564 1563 1561 1562 1561 1560 1560 1559 1561 1565 1566 1566 1568 1569 1569 1571 1573 1573 1575 1576 1578 1579 1577 1579 1578 1577 1578 1578 1577 1576 1575 1574 1574 1573 1571 1571 1570 1568 1567 1565
1568 1568 1566 1565 1564 1563 1564 1562 1562 1561 1561 1560 1566 1569 1569 1572 1571 1572 1573 1572 1573 1573 1573 1576 1577 1577 1579 1578 1577 1576 1575 1574 1572 1572 1573 1572 1571 1571 1570 1568 1567 1566 1564
1568 1567 1567 1566 1566 1565 1566 1565 1563 1562 1561 1564 1564 1568 1568 1571 1573 1573 1576 1573 1574 1574 1574 1576 1576 1576 1576 1575 1575 1574 1574 1573 1572 1570 1571 1571 1569 1568 1568 1567 1565 1564 1562
1568 1568 1567 1567 1566 1567 1565 1564 1563 1563 1565 1565 1564 1563 1569 1570 1570 1574 1574 1574 1575 1576 1576 1576 1575 1576 1577 1576 1577 1575 1573 1572 1570 1569 1568 1568 1567 1568 1566 1564 1563 1561 1561
1568 1568 1568 1567 1567 1566 1565 1565 1565 1566 1565 1564 1564 1566 1568 1569 1570 1571 1571 1574 1577 1577 1575 1575 1576 1575 1575 1574 1575 1573 1571 1571 1570 1568 1567 1564 1565 1564 1563 1561 1559 1559 1559
1567 1567 1568 1568 1568 1567 1567 1567 1566 1565 1564 1565 1565 1566 1568 1569 1570 1570 1571 1573 1574 1575 1573 1574 1574 1574 1574 1573 1572 1570 1570 1569 1567 1567 1566 1563 1562 1560 1559 1559 1556 1554 1554
1566 1567 1568 1568 1568 1568 1568 1567 1566 1566 1566 1566 1566 1567 1568 1569 1570 1570 1570 1571 1572 1573 1573 1573 1573 1572 1573 1572 1570 1570 1569 1567 1566 1565 1562 1559 1560 1558 1556 1554 1553 1551 1549
1566 1567 1567 1567 1568 1568 1568 1567 1567 1566 1567 1567 1567 1568 1569 1569 1569 1569 1571 1571 1571 1571 1572 1572 1571 1571 1571 1569 1567 1567 1565 1565 1564 1563 1561 1559 1557 1555 1552 1551 1549 1545 1547
1564 1565 1566 1567 1567 1568 1568 1567 1567 1567 1567 1568 1568 1569 1569 1569 1569 1569 1569 1570 1571 1570 1570 1571 1570 1569 1568 1567 1565 1563 1562 1560 1559 1557 1556 1555 1553 1552 1550 1548 1545 1542 1541
1562 1563 1565 1565 1566 1566 1567 1567 1567 1567 1567 1568 1568 1569 1569 1569 1569 1569 1568 1568 1568 1569 1570 1570 1570 1568 1567 1565 1563 1562 1561 1559 1557 1555 1553 1551 1549 1547 1545 1543 1541 1539 1538
1559 1561 1562 1563 1563 1564 1565 1565 1566 1566 1567 1567 1567 1568 1568 1568 1568 1568 1568 1568 1568 1568 1567 1568 1567 1566 1564 1563 1562 1560 1558 1555 1553 1551 1549 1548 1546 1543 1542 1540 1538 1536 1533
1555 1557 1558 1560 1561 1562 1563 1563 1564 1564 1565 1565 1566 1566 1566 1567 1567 1567 1568 1568 1567 1567 1566 1566 1566 1564 1562 1560 1558 1557 1555 1553 1551 1550 1548 1545 1543 1541 1538 1536 1533 1531 1528
1551 1553 1554 1556 1557 1559 1560 1561 1561 1562 1562 1562 1563 1564 1564 1564 1565 1565 1565 1565 1565 1565 1564 1563 1562 1561 1560 1558 1556 1554 1551 1550 1549 1546 1544 1543 1542 1540 1536 1533 1529 1525 1523
1546 1549 1550 1552 1554 1555 1557 1558 1558 1559 1559 1560 1560 1561 1561 1562 1563 1563 1563 1563 1563 1563 1562 1561 1559 1558 1557 1555 1552 1550 1549 1547 1544 1542 1541 1539 1538 1535 1532 1530 1526 1523 1519
1540 1543 1545 1546 1548 1550 1552 1553 1554 1555 1556 1557 1557 1558 1558 1559 1559 1560 1560 1560 1560 1560 1559 1558 1557 1556 1554 1552 1549 1547 1545 1543 1541 1539 1535 1532 1529 1529 1528 1526 1522 1519 1515
1533 1535 1537 1540 1542 1544 1546 1548 1549 1550 1551 1552 1553 1553 1554 1555 1555 1556 1556 1556 1557 1556 1556 1555 1554 1553 1551 1549 1547 1545 1542 1539 1536 1537 1530 1530 1526 1523 1518 1520 1519 1514 1510
1525 1527 1530 1532 1535 1538 1540 1542 1543 1544 1546 1547 1547 1548 1549 1550 1551 1551 1551 1551 1551 1551 1550 1550 1549 1549 1547 1545 1543 1542 1541 1539 1536 1534 1529 1523 1524 1520 1517 1513 1509 1508 1505
1515 1519 1522 1524 1526 1530 1533 1534 1536 1537 1538 1540 1541 1542 1543 1544 1545 1545 1545 1545 1545 1545 1545 1544 1544 1544 1543 1542 1540 1538 1537 1535 1533 1531 1529 1518 1520 1513 1511 1510 1506 1501 1499
1506 1508 1511 1514 1517 1520 1524 1526 1528 1529 1530 1532 1534 1535 1536 1537 1539 1539 1538 1539 1539 1539 1539 1538 1537 1537 1538 1537 1536 1534 1532 1530 1526 1525 1523 1518 1513 1507 1504 1502 1500 1497 1495
1497 1499 1501 1504 1507 1510 1514 1516 1518 1520 1520 1523 1525 1525 1528 1529 1531 1532 1531 1532 1531 1533 1532 1531 1529 1529 1529 1529 1528 1527 1525 1523 1523 1519 1520 1516 1511 1506 1497 1492 1491 1488 1484